| time (UTC) | temp F | wind direction | speed MPH | gust MPH | rain 1hr in | rain 24hr in | rain mn in | humidity % | barometer mb |
| 20260506012217 | 53 | 315 | 1.0 | 2.0 | 0.00 | 0.00 | 0.00 | 39 | 1007.5 |
| 20260506011217 | 54 | 293 | 3.0 | 5.0 | 0.00 | 0.00 | 0.00 | 39 | 1007.5 |
| 20260506010217 | 54 | 315 | 5.0 | 8.0 | 0.00 | 0.00 | 0.00 | 38 | 1007.3 |
| 20260506005217 | 54 | 270 | 4.0 | 11.0 | 0.00 | 0.00 | 0.00 | 38 | 1007.1 |
| 20260506004217 | 54 | 270 | 2.0 | 5.0 | 0.00 | 0.00 | 0.00 | 38 | 1007.2 |
| 20260506003217 | 54 | 293 | 5.0 | 11.0 | 0.00 | 0.00 | 0.00 | 38 | 1006.9 |
| 20260506002217 | 54 | 293 | 1.0 | 2.0 | 0.00 | 0.00 | 0.00 | 38 | 1006.9 |
| 20260506001217 | 55 | 293 | 3.0 | 4.0 | 0.00 | 0.00 | 0.00 | 37 | 1007.0 |
| 20260506000219 | 55 | 270 | 2.0 | 4.0 | 0.00 | 0.00 | 0.00 | 38 | 1007.1 |
| 20260505235217 | 55 | 293 | 1.0 | 2.0 | 0.00 | 0.10 | 0.00 | 37 | 1006.9 |
| 20260505234217 | 55 | 338 | 4.0 | 8.0 | 0.00 | 0.10 | 0.00 | 36 | 1007.0 |
| 20260505233216 | 55 | 293 | 7.0 | 9.0 | 0.00 | 0.10 | 0.00 | 36 | 1007.0 |
| 20260505232217 | 55 | 315 | 7.0 | 13.0 | 0.00 | 0.10 | 0.00 | 35 | 1007.1 |
| 20260505231216 | 55 | 0 | 3.0 | 10.0 | 0.00 | 0.10 | 0.00 | 36 | 1007.0 |
| 20260505230216 | 56 | 293 | 5.0 | 7.0 | 0.00 | 0.10 | 0.00 | 36 | 1007.0 |
| 20260505225217 | 56 | 270 | 5.0 | 11.0 | 0.00 | 0.19 | 0.00 | 35 | 1007.1 |
| 20260505224237 | 56 | 270 | 7.0 | 10.0 | 0.00 | 0.19 | 0.00 | 34 | 1007.4 |
| 20260505223216 | 56 | 248 | 7.0 | 9.0 | 0.00 | 0.19 | 0.00 | 34 | 1007.4 |
| 20260505222257 | 56 | 270 | 7.0 | 12.0 | 0.00 | 0.19 | 0.00 | 34 | 1007.3 |
| 20260505221217 | 55 | 270 | 4.0 | 7.0 | 0.00 | 0.19 | 0.00 | 35 | 1007.2 |
| 20260505220217 | 56 | 293 | 6.0 | 9.0 | 0.00 | 0.19 | 0.00 | 33 | 1007.3 |
| 20260505215237 | 56 | 248 | 7.0 | 10.0 | 0.00 | 0.19 | 0.00 | 33 | 1007.6 |
| 20260505214217 | 56 | 315 | 5.0 | 10.0 | 0.00 | 0.19 | 0.00 | 33 | 1007.5 |
| 20260505213217 | 56 | 248 | 4.0 | 6.0 | 0.00 | 0.19 | 0.00 | 34 | 1007.4 |
| 20260505212216 | 56 | 270 | 8.0 | 11.0 | 0.00 | 0.19 | 0.00 | 33 | 1007.4 |
| 20260505211237 | 56 | 315 | 3.0 | 5.0 | 0.00 | 0.19 | 0.00 | 34 | 1007.4 |
| 20260505210216 | 56 | 248 | 8.0 | 10.0 | 0.00 | 0.19 | 0.00 | 33 | 1007.4 |
| 20260505205216 | 56 | 270 | 7.0 | 13.0 | 0.00 | 0.19 | 0.00 | 34 | 1007.4 |
| 20260505204216 | 56 | 293 | 8.0 | 12.0 | 0.00 | 0.19 | 0.00 | 33 | 1007.5 |
| 20260505203216 | 56 | 293 | 8.0 | 12.0 | 0.00 | 0.19 | 0.00 | 32 | 1007.8 |
| 20260505202216 | 56 | 270 | 8.0 | 12.0 | 0.00 | 0.19 | 0.00 | 32 | 1007.8 |
| 20260505201337 | 56 | 270 | 9.0 | 12.0 | 0.00 | 0.19 | 0.00 | 31 | 1007.8 |
| 20260505200257 | 56 | 315 | 6.0 | 9.0 | 0.00 | 0.19 | 0.00 | 31 | 1007.8 |
| 20260505195216 | 56 | 270 | 6.0 | 8.0 | 0.00 | 0.19 | 0.00 | 31 | 1007.7 |
| 20260505194216 | 56 | 293 | 6.0 | 9.0 | 0.00 | 0.19 | 0.00 | 32 | 1007.7 |
| 20260505193317 | 56 | 270 | 7.0 | 10.0 | 0.00 | 0.19 | 0.00 | 32 | 1007.7 |
| 20260505192216 | 56 | 270 | 7.0 | 11.0 | 0.00 | 0.19 | 0.00 | 33 | 1007.8 |
| 20260505191216 | 56 | 270 | 6.0 | 9.0 | 0.00 | 0.19 | 0.00 | 33 | 1008.2 |
| 20260505190216 | 56 | 248 | 6.0 | 10.0 | 0.00 | 0.19 | 0.00 | 31 | 1008.0 |
| 20260505185216 | 56 | 270 | 9.0 | 13.0 | 0.00 | 0.19 | 0.00 | 33 | 1007.9 |
| 20260505184216 | 56 | 248 | 6.0 | 9.0 | 0.00 | 0.19 | 0.00 | 31 | 1008.1 |
| 20260505183237 | 56 | 270 | 9.0 | 12.0 | 0.00 | 0.19 | 0.00 | 31 | 1008.1 |
| 20260505182216 | 57 | 248 | 7.0 | 11.0 | 0.00 | 0.19 | 0.00 | 32 | 1007.9 |
| 20260505181216 | 57 | 315 | 4.0 | 7.0 | 0.00 | 0.19 | 0.00 | 33 | 1007.9 |
| 20260505180216 | 57 | 293 | 3.0 | 6.0 | 0.00 | 0.19 | 0.00 | 36 | 1007.9 |
| 20260505175216 | 57 | 293 | 4.0 | 7.0 | 0.00 | 0.19 | 0.00 | 35 | 1007.8 |
| 20260505174216 | 57 | 248 | 8.0 | 11.0 | 0.00 | 0.19 | 0.00 | 36 | 1007.8 |
| 20260505173216 | 57 | 270 | 9.0 | 12.0 | 0.00 | 0.19 | 0.00 | 35 | 1007.6 |
| 20260505172216 | 56 | 270 | 12.0 | 16.0 | 0.00 | 0.19 | 0.00 | 37 | 1007.6 |
| 20260505171216 | 56 | 293 | 11.0 | 14.0 | 0.00 | 0.19 | 0.00 | 36 | 1007.6 |
| 20260505170216 | 56 | 45 | 3.0 | 8.0 | 0.00 | 0.19 | 0.00 | 37 | 1007.5 |
| 20260505165216 | 56 | 293 | 5.0 | 9.0 | 0.00 | 0.19 | 0.00 | 36 | 1007.4 |
| 20260505164236 | 56 | 248 | 4.0 | 7.0 | 0.00 | 0.19 | 0.00 | 36 | 1007.7 |
| 20260505163216 | 56 | 315 | 7.0 | 11.0 | 0.00 | 0.19 | 0.00 | 37 | 1007.8 |
| 20260505162216 | 55 | 293 | 8.0 | 9.0 | 0.00 | 0.19 | 0.00 | 37 | 1007.6 |
| 20260505161236 | 55 | 315 | 4.0 | 7.0 | 0.00 | 0.19 | 0.00 | 39 | 1007.4 |
| 20260505160216 | 55 | 270 | 5.0 | 9.0 | 0.00 | 0.19 | 0.00 | 40 | 1007.2 |
| 20260505153216 | 54 | 293 | 7.0 | 10.0 | 0.00 | 0.19 | 0.00 | 43 | 1007.2 |
| 20260505152216 | 53 | 315 | 6.0 | 8.0 | 0.00 | 0.19 | 0.00 | 44 | 1007.1 |
| 20260505151216 | 53 | 293 | 5.0 | 9.0 | 0.00 | 0.19 | 0.00 | 41 | 1007.3 |
| 20260505150216 | 52 | 293 | 6.0 | 11.0 | 0.00 | 0.19 | 0.00 | 43 | 1007.3 |
| 20260505140217 | 51 | 270 | 2.0 | 3.0 | 0.00 | 0.19 | 0.00 | 45 | 1007.6 |
| 20260505130218 | 49 | 293 | 5.0 | 8.0 | 0.00 | 0.19 | 0.00 | 53 | 1007.2 |
| 20260505124217 | 49 | 225 | 2.0 | 3.0 | 0.00 | 0.19 | 0.00 | 59 | 1007.3 |
| 20260505123218 | 49 | 293 | 2.0 | 3.0 | 0.00 | 0.19 | 0.00 | 58 | 1007.4 |
| 20260505122217 | 49 | 0.0 | 1.0 | 0.00 | 0.19 | 0.00 | 58 | 1007.2 | |
| 20260505121218 | 49 | 203 | 1.0 | 2.0 | 0.00 | 0.19 | 0.00 | 55 | 1007.1 |
| 20260505120218 | 49 | 225 | 2.0 | 2.0 | 0.00 | 0.19 | 0.00 | 56 | 1007.5 |
| 20260505115238 | 49 | 270 | 3.0 | 4.0 | 0.00 | 0.19 | 0.00 | 57 | 1007.3 |
| 20260505114218 | 49 | 0.0 | 1.0 | 0.00 | 0.19 | 0.00 | 56 | 1006.8 | |
| 20260505113238 | 49 | 338 | 1.0 | 2.0 | 0.00 | 0.19 | 0.00 | 54 | 1006.1 |
| 20260505112217 | 50 | 315 | 4.0 | 8.0 | 0.00 | 0.19 | 0.00 | 51 | 1006.4 |
| 20260505111217 | 50 | 68 | 1.0 | 3.0 | 0.00 | 0.19 | 0.00 | 49 | 1005.4 |
| 20260505110218 | 50 | 0 | 6.0 | 9.0 | 0.00 | 0.19 | 0.00 | 49 | 1005.4 |
| 20260505102218 | 51 | 315 | 6.0 | 8.0 | 0.00 | 0.19 | 0.00 | 51 | 1005.7 |
| 20260505101217 | 51 | 315 | 2.0 | 4.0 | 0.00 | 0.19 | 0.00 | 51 | 1005.2 |
| 20260505100217 | 51 | 68 | 2.0 | 3.0 | 0.00 | 0.19 | 0.00 | 50 | 1004.9 |
| 20260505095217 | 52 | 338 | 4.0 | 6.0 | 0.00 | 0.19 | 0.00 | 50 | 1004.9 |
| 20260505094258 | 52 | 315 | 3.0 | 4.0 | 0.00 | 0.19 | 0.00 | 53 | 1005.2 |
| 20260505093217 | 53 | 293 | 2.0 | 3.0 | 0.00 | 0.19 | 0.00 | 51 | 1005.2 |
| 20260505092258 | 53 | 338 | 3.0 | 5.0 | 0.00 | 0.19 | 0.00 | 48 | 1005.1 |
| 20260505091217 | 53 | 293 | 2.0 | 4.0 | 0.00 | 0.19 | 0.00 | 48 | 1005.0 |
| 20260505090237 | 53 | 315 | 4.0 | 8.0 | 0.00 | 0.19 | 0.00 | 47 | 1004.7 |
| 20260505085218 | 54 | 315 | 3.0 | 7.0 | 0.00 | 0.19 | 0.00 | 46 | 1004.5 |
| 20260505084217 | 54 | 315 | 7.0 | 13.0 | 0.00 | 0.19 | 0.00 | 46 | 1004.2 |
| 20260505083217 | 55 | 338 | 6.0 | 11.0 | 0.00 | 0.19 | 0.00 | 46 | 1003.9 |
| 20260505082217 | 56 | 338 | 6.0 | 10.0 | 0.00 | 0.19 | 0.00 | 47 | 1003.5 |
| 20260505081237 | 56 | 315 | 4.0 | 8.0 | 0.00 | 0.19 | 0.00 | 46 | 1002.8 |
| 20260505080217 | 56 | 315 | 4.0 | 7.0 | 0.00 | 0.19 | 0.00 | 46 | 1002.9 |
| 20260505075217 | 56 | 293 | 5.0 | 7.0 | 0.00 | 0.19 | 0.00 | 44 | 1002.7 |
| 20260505074217 | 57 | 270 | 8.0 | 11.0 | 0.00 | 0.19 | 0.00 | 44 | 1002.5 |
| 20260505073217 | 57 | 315 | 6.0 | 10.0 | 0.00 | 0.19 | 0.00 | 44 | 1002.5 |
| 20260505072217 | 57 | 315 | 9.0 | 15.0 | 0.00 | 0.19 | 0.00 | 44 | 1002.3 |
| 20260505071257 | 57 | 293 | 4.0 | 9.0 | 0.00 | 0.19 | 0.00 | 44 | 1002.3 |
| 20260505070217 | 57 | 270 | 3.0 | 4.0 | 0.00 | 0.19 | 0.00 | 45 | 1002.1 |
| 20260505065217 | 58 | 315 | 3.0 | 3.0 | 0.00 | 0.19 | 0.00 | 44 | 1001.9 |
| 20260505064217 | 58 | 293 | 3.0 | 6.0 | 0.00 | 0.19 | 0.00 | 43 | 1001.7 |
| 20260505063217 | 59 | 293 | 4.0 | 7.0 | 0.00 | 0.19 | 0.00 | 43 | 1001.8 |
| 20260505062217 | 59 | 293 | 5.0 | 12.0 | 0.00 | 0.19 | 0.00 | 43 | 1001.8 |
| 20260505061258 | 59 | 293 | 3.0 | 4.0 | 0.00 | 0.19 | 0.00 | 42 | 1001.9 |
| 20260505060217 | 60 | 293 | 3.0 | 4.0 | 0.00 | 0.19 | 0.00 | 42 | 1001.8 |
| 20260505055217 | 60 | 293 | 6.0 | 10.0 | 0.00 | 0.19 | 0.00 | 41 | 1001.7 |
| 20260505054217 | 60 | 270 | 5.0 | 8.0 | 0.00 | 0.19 | 0.00 | 41 | 1001.6 |
| 20260505053216 | 60 | 270 | 9.0 | 11.0 | 0.00 | 0.19 | 0.00 | 41 | 1001.5 |
| 20260505052217 | 60 | 270 | 6.0 | 9.0 | 0.00 | 0.19 | 0.00 | 43 | 1001.3 |
| 20260505051217 | 60 | 293 | 6.0 | 8.0 | 0.00 | 0.19 | 0.00 | 44 | 1001.1 |
| 20260505050217 | 60 | 248 | 3.0 | 5.0 | 0.00 | 0.19 | 0.00 | 44 | 1000.8 |
| 20260505041217 | 61 | 270 | 4.0 | 7.0 | 0.00 | 0.19 | 0.19 | 66 | 1000.5 |
| 20260505040217 | 61 | 270 | 6.0 | 9.0 | 0.00 | 0.19 | 0.19 | 69 | 1000.3 |
| 20260505035237 | 61 | 248 | 4.0 | 4.0 | 0.00 | 0.19 | 0.19 | 71 | 1000.3 |
| 20260505034217 | 61 | 0 | 6.0 | 9.0 | 0.00 | 0.19 | 0.19 | 70 | 1000.0 |
| 20260505033217 | 62 | 0 | 4.0 | 5.0 | 0.00 | 0.19 | 0.19 | 70 | 1000.0 |
| 20260505032217 | 62 | 225 | 5.0 | 7.0 | 0.00 | 0.19 | 0.19 | 70 | 999.7 |
| 20260505031217 | 62 | 248 | 3.0 | 7.0 | 0.00 | 0.19 | 0.19 | 69 | 999.7 |
| 20260505030217 | 62 | 0 | 5.0 | 8.0 | 0.00 | 0.19 | 0.19 | 70 | 999.6 |
| 20260505025217 | 62 | 0 | 6.0 | 11.0 | 0.00 | 0.19 | 0.19 | 70 | 999.8 |
| 20260505024217 | 62 | 0 | 7.0 | 12.0 | 0.00 | 0.19 | 0.19 | 71 | 999.7 |
| 20260505023217 | 62 | 0 | 7.0 | 10.0 | 0.00 | 0.19 | 0.19 | 71 | 999.3 |
| 20260505022238 | 62 | 225 | 6.0 | 9.0 | 0.00 | 0.19 | 0.19 | 71 | 998.9 |
| 20260505021217 | 62 | 0 | 6.0 | 9.0 | 0.00 | 0.19 | 0.19 | 71 | 998.6 |
| 20260505020217 | 63 | 0 | 6.0 | 9.0 | 0.00 | 0.19 | 0.19 | 71 | 998.2 |
| 20260505015217 | 63 | 0 | 7.0 | 11.0 | 0.00 | 0.19 | 0.19 | 70 | 998.1 |
| 20260505014217 | 63 | 225 | 6.0 | 9.0 | 0.00 | 0.19 | 0.19 | 70 | 997.9 |
| 20260505013217 | 63 | 225 | 8.0 | 10.0 | 0.00 | 0.19 | 0.19 | 70 | 997.7 |